GEFSSGP_500_meanwind_006.txt.gz
Wind_Speed
10 15 18 16 10 10 11 7 4 3 7 11 18 26 31 30 27 23 20 20 18 17 17 16 16 16 14 13 14 14 15 17 18 18 19 20 20 18 17 17 17 18 19 20 21 21 22 23 24
16 20 19 13 6 6 6 2 7 10 14 16 19 21 23 23 20 18 16 15 13 12 12 12 12 13 13 14 15 16 17 18 19 20 20 21 20 19 18 18 20 21 22 23 24 25 25 26 27
20 22 17 11 4 5 7 11 13 15 19 20 17 15 13 11 11 14 14 12 10 9 10 10 10 12 13 15 17 18 18 19 19 20 21 22 21 21 20 20 22 24 25 26 26 27 27 28 30
22 22 14 7 3 5 11 15 17 21 19 17 15 13 10 10 12 14 13 12 11 11 11 11 10 10 11 13 15 17 17 17 17 19 20 21 22 23 25 25 26 27 28 29 30 31 32 33 34
21 19 14 8 1 7 14 15 18 21 21 18 17 17 15 14 15 16 15 14 14 14 14 13 13 10 7 8 11 12 13 14 15 17 18 19 20 22 25 28 29 29 30 31 31 33 35 37 39
18 16 13 7 1 7 12 14 17 18 16 15 17 19 18 17 17 14 15 16 16 14 12 12 13 11 9 9 10 12 14 15 16 16 18 20 22 24 24 26 29 31 32 32 31 30 31 32 33
16 13 9 5 5 9 11 15 18 20 19 17 19 21 20 20 13 12 14 16 18 17 15 14 14 10 9 10 12 13 15 17 18 18 18 19 20 21 23 24 26 26 27 28 28 28 29 30 29
13 11 9 9 9 6 10 16 21 21 21 21 22 21 18 18 11 12 16 16 18 20 19 15 12 11 12 14 15 16 18 20 21 21 20 20 21 21 22 23 25 27 27 26 26 27 28 28 29
16 14 11 11 9 2 8 14 17 20 21 21 21 20 20 20 17 20 20 18 21 21 20 17 13 12 13 15 17 19 21 23 24 24 24 25 25 25 24 24 24 25 26 27 28 28 28 29 30
17 15 11 9 8 3 6 9 15 21 22 21 20 21 23 23 23 21 21 23 19 18 18 18 18 17 16 16 18 20 23 25 26 26 26 27 27 27 28 28 28 27 28 29 31 31 31 32 32
16 15 12 10 10 10 12 14 19 21 21 21 22 22 23 23 21 20 24 21 14 15 18 19 21 21 21 20 21 22 25 27 28 28 28 28 28 28 28 28 28 29 29 29 31 33 33 34 34
17 18 17 12 14 18 18 20 22 23 22 23 26 26 24 22 20 21 24 22 22 24 23 21 20 20 22 23 24 24 25 25 26 27 29 29 28 28 29 28 27 28 29 29 30 32 33 35 36
20 21 20 15 16 22 25 26 28 29 27 26 27 27 25 24 22 22 24 24 26 29 25 20 23 21 22 23 25 24 23 23 25 27 29 29 30 30 31 30 29 29 31 33 34 35 37 38 40
23 24 23 19 18 19 24 28 29 30 28 27 28 28 26 25 26 26 26 26 27 28 29 29 30 27 26 23 22 24 24 25 26 27 28 29 32 33 32 32 32 33 35 38 40 42 43 45 46
25 24 22 19 17 15 18 22 25 27 27 26 27 28 27 27 29 29 31 31 31 33 35 36 32 31 28 26 26 26 26 25 28 31 33 34 36 36 36 36 37 38 39 42 45 48 49 50 50
25 24 20 16 14 13 16 14 16 21 22 24 26 28 29 30 30 32 35 35 33 34 36 37 36 33 31 31 30 28 26 27 31 34 36 38 39 39 38 38 39 38 40 43 46 49 51 51 52
26 23 17 12 8 8 13 12 14 20 20 23 26 29 32 33 33 34 36 36 34 35 37 37 36 35 35 35 33 31 30 31 33 35 37 39 41 42 43 43 42 42 44 46 47 50 51 51 52
23 21 17 15 11 10 15 18 20 23 23 26 28 30 32 33 34 35 35 35 34 35 37 38 37 37 37 37 35 34 33 33 34 35 38 39 41 42 44 45 46 46 48 49 51 52 53 54 55
25 23 21 20 16 14 17 23 26 27 29 29 31 33 33 31 30 32 33 33 33 35 38 39 38 37 37 36 35 35 35 35 36 38 39 40 41 43 45 47 48 48 50 53 56 57 59 62 65
25 25 23 20 14 14 15 19 25 29 31 32 33 32 28 24 25 29 31 33 34 37 40 39 38 37 36 35 35 36 37 38 39 40 42 43 44 46 49 51 53 54 56 58 60 62 65 68 72
26 25 24 22 20 18 18 22 28 31 33 35 33 26 22 21 24 29 31 32 33 36 39 38 37 37 37 37 38 39 40 40 42 44 45 47 49 51 54 55 57 59 61 63 65 68 71 73 76
28 22 22 25 29 26 24 26 31 34 36 35 32 26 24 23 26 31 33 32 31 35 36 36 36 38 39 40 41 42 42 44 46 48 50 53 55 57 58 60 62 65 67 67 67 67 67 68 69
27 22 22 26 31 35 34 32 36 39 38 35 32 28 27 28 30 33 35 34 34 35 37 38 39 40 42 44 45 46 46 48 50 52 54 56 58 60 61 64 66 66 63 60 58 57 57 57 56
25 24 27 30 31 37 39 40 43 44 41 38 35 32 33 34 36 38 37 36 36 38 39 42 43 44 44 46 48 48 50 51 53 55 57 58 60 61 64 65 62 57 53 50 49 50 50 50 50
29 30 32 34 36 37 34 40 43 43 42 41 37 35 37 38 40 40 38 37 37 39 42 46 47 46 47 48 50 51 52 54 56 57 59 60 61 62 63 59 52 49 45 44 46 47 47 47 47
27 29 31 33 32 32 35 40 39 39 39 37 37 38 39 39 40 41 41 39 39 40 45 49 48 47 50 52 52 54 55 57 58 59 61 61 62 62 57 49 46 44 42 43 44 44 46 47 48
27 25 26 32 32 32 33 34 33 32 34 35 38 39 39 38 37 38 40 40 41 43 48 50 48 49 52 55 55 55 57 58 60 61 61 62 62 56 47 43 42 41 41 43 44 46 48 49 49
30 26 26 31 33 34 35 36 35 33 33 33 34 34 33 33 34 36 39 41 43 47 50 51 50 51 54 56 56 57 59 61 61 61 61 61 52 43 39 39 39 40 43 45 47 49 50 51 52
28 28 29 31 34 34 32 33 34 37 40 41 41 41 38 35 36 37 39 42 46 49 51 51 52 53 55 56 58 60 62 62 61 60 58 50 40 37 37 37 39 42 44 46 49 51 52 53 52
28 28 29 32 34 35 35 32 32 36 41 44 44 43 42 39 38 37 38 44 48 48 48 50 52 54 56 59 61 62 63 61 60 56 48 39 36 36 37 38 41 44 47 49 50 51 52 52 50

GEFSSGP_500_meanwind_012.txt.gz
Wind_Speed
9 11 12 11 10 11 11 9 4 5 6 9 12 14 13 12 11 12 13 15 14 14 14 12 10 10 11 11 11 12 12 13 13 14 14 15 15 16 16 16 16 17 17 17 17 18 18 19 21
14 14 12 11 9 10 10 6 4 4 4 7 11 12 12 12 12 13 13 13 12 12 12 11 9 8 8 9 9 11 13 13 14 15 16 17 17 18 18 18 18 18 19 19 20 20 21 22 23
17 15 13 11 10 9 6 3 2 1 3 6 8 11 13 13 12 13 12 11 10 10 11 10 9 9 8 8 8 10 11 12 13 15 16 16 16 17 18 19 19 20 21 21 22 23 24 25 27
17 15 12 10 10 8 5 2 3 5 6 8 10 12 14 14 14 12 11 10 10 10 10 10 10 10 9 8 8 8 9 10 11 12 13 14 15 15 16 17 18 19 21 23 25 27 28 29 29
17 14 12 11 10 7 4 1 5 8 10 12 12 14 15 15 14 12 11 11 11 11 10 11 11 11 10 8 7 7 8 9 9 10 11 12 13 14 15 16 18 19 20 21 23 26 28 30 31
16 14 12 10 9 6 3 1 5 8 10 12 14 15 16 15 16 14 13 13 13 13 12 12 12 11 10 9 8 9 10 11 10 10 11 11 11 12 14 15 16 17 19 20 22 23 25 27 29
17 14 12 10 10 7 4 2 4 7 9 12 14 16 16 16 16 15 15 15 13 12 11 12 11 10 9 9 9 11 12 13 13 13 14 14 15 15 16 16 17 18 19 19 20 21 23 26 27
16 14 14 14 13 11 7 3 3 5 8 11 14 15 16 18 17 15 15 15 14 13 11 11 10 9 9 10 12 13 15 17 18 18 18 18 18 18 18 19 19 20 20 21 21 22 23 25 27
14 15 14 15 14 11 9 4 4 6 7 10 13 15 18 19 18 16 16 15 16 16 14 12 9 9 10 11 13 15 17 19 20 21 21 21 19 19 20 20 21 21 22 22 23 24 25 27 28
14 14 12 12 13 13 11 8 7 8 9 11 14 16 17 19 18 16 16 16 17 16 15 13 10 9 10 12 13 15 16 18 19 20 22 22 21 21 21 21 21 22 23 23 24 25 26 27 29
16 16 13 13 14 15 16 14 13 13 13 14 15 18 19 20 19 16 16 16 17 16 15 14 13 12 11 13 14 15 16 17 18 19 21 22 23 22 23 23 23 24 25 25 26 26 28 29 31
20 19 17 16 16 19 21 20 17 16 16 18 19 21 21 21 20 18 16 16 17 17 16 15 14 13 13 14 15 16 17 18 19 20 21 22 24 25 26 27 28 28 28 28 28 29 30 32 34
23 22 19 18 19 21 22 23 19 18 20 21 22 23 23 22 22 20 18 17 17 17 17 16 16 15 15 16 17 17 18 20 21 22 23 24 25 26 28 29 29 30 29 29 30 31 33 34 36
27 23 21 20 22 23 25 26 24 22 24 24 25 25 24 22 21 21 20 18 18 18 17 18 19 20 20 19 19 19 21 22 23 24 24 25 26 27 28 28 29 30 31 32 33 34 35 36 37
29 26 24 24 25 27 27 27 27 27 28 28 28 27 24 20 20 22 22 21 20 19 19 20 22 24 24 22 21 20 21 22 22 22 23 25 26 28 28 29 31 32 33 35 36 37 38 40 41
30 28 26 27 27 28 28 27 26 28 30 30 30 27 22 18 18 21 24 23 22 20 21 22 24 25 25 24 22 21 21 21 21 22 24 25 28 29 31 32 34 35 37 38 39 41 42 44 46
32 31 28 29 30 30 31 30 28 29 30 29 28 24 18 15 17 21 24 24 21 20 21 23 25 26 25 24 23 23 23 23 24 25 27 28 30 32 34 36 38 39 41 42 43 44 46 47 49
35 34 31 29 31 33 35 34 31 31 30 29 27 21 17 15 17 21 23 23 20 20 22 24 26 27 27 27 27 27 28 28 29 30 31 33 34 36 38 40 41 43 45 46 48 49 51 52 53
37 37 35 31 32 37 38 37 34 34 32 31 27 21 18 17 18 21 23 22 21 22 24 26 29 31 31 32 32 33 34 34 34 34 34 36 37 39 41 43 45 46 48 50 52 53 55 56 57
40 40 38 33 34 40 41 41 38 35 34 31 28 26 21 18 20 23 24 24 24 25 27 30 33 34 35 36 36 37 38 38 37 37 37 39 41 43 45 47 49 51 52 54 55 57 58 59 60
42 41 38 35 36 42 43 44 41 38 35 31 27 24 20 19 22 25 27 27 27 28 30 33 35 37 37 38 39 39 40 41 41 41 42 44 46 48 50 52 54 55 57 58 59 60 60 61 61
42 39 38 37 39 42 45 48 44 42 38 33 27 23 21 23 25 28 29 30 31 32 33 36 38 39 39 39 41 42 43 44 44 44 45 47 50 52 54 56 57 59 59 60 61 61 61 60 55
38 36 38 39 41 44 46 49 47 45 42 34 27 24 25 27 29 30 31 32 33 34 36 38 40 40 40 41 42 44 45 46 47 47 48 51 54 57 59 59 59 60 61 62 61 59 56 51 45
37 37 40 41 43 46 45 47 49 44 39 34 30 28 29 31 32 32 32 34 35 37 39 41 42 42 42 42 44 46 47 48 48 49 51 54 58 61 62 61 60 61 61 61 58 54 48 43 41
36 36 38 41 43 45 41 45 45 41 37 34 33 34 34 34 34 34 34 36 38 39 41 43 45 45 44 44 47 48 49 50 50 51 54 58 61 63 62 60 60 61 60 56 51 47 43 42 43
33 34 37 40 42 43 41 44 40 38 36 36 38 38 38 39 38 38 38 38 39 41 43 45 46 47 47 48 50 51 51 50 50 52 57 60 62 61 60 60 60 59 54 49 46 44 43 44 46
29 32 34 39 42 44 43 42 39 36 35 35 35 36 38 39 38 36 35 35 37 40 44 46 47 49 50 51 52 53 52 50 51 55 59 62 61 59 58 58 56 52 48 45 44 44 45 47 49
28 29 35 40 42 45 44 42 38 33 31 31 32 33 34 35 34 33 33 34 38 41 43 46 50 52 53 53 53 53 51 50 53 56 60 59 57 56 56 54 50 47 45 44 44 46 48 51 54
26 29 33 37 41 45 47 43 35 32 30 29 29 29 31 32 35 37 37 38 40 43 45 48 52 54 54 54 52 50 48 49 52 56 57 55 54 55 53 50 47 45 45 45 47 49 52 55 58
29 31 33 36 38 42 46 42 36 34 32 31 31 31 31 32 34 36 38 39 41 44 47 50 53 54 53 51 48 46 47 49 53 54 52 52 53 52 49 47 46 45 46 48 51 54 57 59 62

GEFSSGP_500_meanwind_018.txt.gz
Wind_Speed
17 17 17 15 13 11 8 9 9 9 8 8 7 4 2 2 2 3 4 4 3 2 2 2 2 3 4 5 7 9 10 11 11 11 11 11 12 12 12 12 13 13 14 14 14 15 15 16 17
15 14 12 11 10 6 8 10 10 10 9 7 6 4 3 2 2 2 2 2 2 2 2 2 2 2 2 3 5 7 9 10 11 11 11 12 12 13 13 14 14 15 15 16 16 16 16 17 18
13 12 11 10 10 10 10 10 10 10 8 7 5 4 3 3 3 3 3 3 3 4 3 3 3 2 1 2 3 5 6 7 8 9 9 10 10 11 11 12 13 14 15 15 16 17 18 19 20
11 12 11 11 11 11 11 10 9 8 6 4 2 2 3 3 3 3 3 4 4 5 4 4 4 4 3 4 4 4 4 5 6 6 7 7 8 9 10 11 12 13 14 15 16 16 18 19 20
11 13 13 12 12 11 10 8 7 6 5 2 1 2 3 4 5 5 4 4 4 5 5 6 7 6 5 4 5 5 5 5 6 7 7 8 9 10 11 12 13 14 15 16 17 17 18 19 20
12 14 14 12 13 11 10 8 7 5 3 2 3 4 6 7 8 7 6 5 5 5 6 7 8 7 6 5 6 6 6 7 8 8 9 10 11 12 12 13 14 15 16 17 18 19 19 20 21
13 14 16 15 13 11 9 8 8 6 3 1 4 6 7 8 9 8 7 7 6 6 6 7 7 7 7 7 7 8 9 9 10 11 12 13 14 14 14 15 15 16 17 18 19 20 21 22 23
12 14 15 15 13 11 8 8 8 6 4 1 2 6 8 10 10 9 8 7 7 6 6 6 6 6 7 8 9 10 11 12 13 14 14 15 15 15 16 16 16 16 17 18 19 21 22 23 25
12 14 16 16 15 12 9 7 6 6 5 3 3 5 8 9 10 10 9 8 8 7 7 7 7 7 7 8 10 11 12 14 14 15 15 15 16 16 16 16 16 17 18 19 21 23 24 25 26
13 16 17 15 14 12 11 9 7 7 7 5 5 6 8 10 11 12 11 10 9 8 8 8 8 8 9 10 11 12 13 14 15 16 16 16 16 15 15 15 16 17 19 21 22 23 24 25 25
14 17 14 14 14 13 12 11 8 9 9 7 7 8 9 11 12 13 13 12 11 10 9 9 9 9 10 11 12 12 13 14 15 16 16 16 17 16 16 17 18 19 20 21 22 23 23 24 24
16 17 16 16 15 16 15 13 12 11 8 10 11 11 11 13 13 14 14 14 12 11 10 10 9 9 10 10 11 12 12 13 14 15 15 16 16 16 17 17 18 19 20 21 22 23 24 25 27
19 19 19 19 18 19 18 16 15 15 12 13 13 13 14 15 15 15 15 15 15 13 12 10 9 9 9 10 10 10 11 11 11 12 12 13 13 14 15 16 18 20 21 23 25 27 28 30 31
24 22 22 22 22 21 21 20 19 19 17 17 17 16 16 17 18 18 17 16 16 15 13 11 10 9 9 9 9 9 10 10 10 11 11 12 12 14 15 17 18 20 22 24 27 29 31 33 35
27 25 25 27 26 25 23 24 24 24 22 20 19 19 19 20 21 20 19 17 16 16 14 12 11 9 9 9 9 10 10 11 12 13 13 13 14 15 16 17 19 21 23 25 28 30 33 35 37
31 30 30 32 32 30 27 23 29 28 27 25 23 22 22 22 23 23 21 18 17 16 15 14 13 11 11 11 11 12 13 14 15 15 15 16 16 17 18 20 21 23 25 28 30 33 36 38 40
34 35 34 34 36 35 33 28 36 32 32 30 28 26 25 25 26 26 23 21 19 18 17 17 17 15 14 14 15 16 16 17 18 19 19 19 20 21 23 24 26 28 30 32 35 37 40 42 43
35 38 39 38 39 38 39 39 41 38 37 35 33 31 29 29 29 29 27 25 22 21 21 21 21 20 18 18 18 19 20 21 22 23 23 24 25 26 27 29 31 33 35 37 40 42 44 46 47
37 37 39 42 44 41 44 46 46 44 41 39 37 35 34 32 32 30 29 28 27 26 26 27 26 25 23 21 21 23 23 24 25 27 28 28 30 31 32 34 36 38 40 43 45 47 49 50 51
35 36 38 39 43 44 48 50 49 47 44 42 41 39 37 36 33 31 32 32 32 31 32 32 33 30 27 25 25 26 27 28 30 32 33 34 35 36 37 38 40 42 45 47 49 51 53 55 56
35 36 37 39 41 43 47 48 48 48 46 44 43 42 40 37 34 32 34 36 36 36 35 36 37 35 33 31 30 30 31 32 35 38 39 41 42 43 44 45 46 48 50 52 53 55 56 57 59
34 36 37 39 40 41 46 47 41 45 45 42 41 40 39 38 35 34 34 37 37 38 38 39 39 39 36 35 34 35 35 37 40 43 45 47 48 50 50 52 53 54 56 56 57 57 58 59 60
33 36 37 39 40 42 46 47 42 43 46 40 39 38 37 37 36 35 36 37 39 40 40 41 41 40 39 38 38 38 39 41 45 47 49 52 54 55 56 57 58 59 59 59 59 59 59 60 60
30 32 34 36 39 43 42 44 41 34 39 36 36 36 36 38 38 39 40 42 43 43 43 42 42 42 42 41 41 41 43 45 47 49 51 54 55 56 56 57 57 58 58 58 59 60 60 60 60
28 29 31 32 34 36 34 39 37 33 35 35 34 34 34 35 36 38 40 42 43 44 44 45 45 44 44 44 43 43 45 47 49 51 53 55 55 55 55 55 56 56 56 58 59 60 60 60 59
29 30 31 30 26 25 26 32 29 32 33 33 32 32 32 32 32 34 35 38 40 42 44 46 46 45 44 43 43 45 48 50 52 53 54 54 54 53 53 53 53 55 57 59 60 60 59 59 58
29 30 29 31 32 32 30 29 31 32 31 29 29 30 30 30 30 30 31 32 34 37 40 41 41 41 41 42 44 46 49 50 52 52 52 51 50 50 51 52 54 56 58 59 59 59 59 59 58
29 29 30 32 31 32 31 28 25 24 24 25 25 26 26 26 26 26 27 28 30 32 34 36 38 38 40 41 42 44 47 48 50 51 49 48 50 52 53 54 55 56 57 58 58 58 58 57 56
30 31 31 29 27 27 28 25 24 27 26 24 24 24 24 24 25 26 26 27 28 30 32 34 36 37 39 40 42 45 46 48 50 50 50 51 51 52 52 53 55 56 57 58 58 57 57 56 56
31 32 30 30 28 28 29 26 27 29 27 25 25 24 24 25 27 28 29 30 30 32 34 35 37 38 40 42 44 47 49 51 51 52 52 51 50 51 52 53 55 56 57 57 56 56 56 57 57

GEFSSGP_500_meanwind_024.txt.gz
Wind_Speed
20 17 14 10 7 5 7 3 13 17 16 13 13 17 18 15 15 15 15 15 12 13 11 11 11 10 10 10 10 11 12 13 14 15 16 16 16 16 15 15 15 15 15 16 16 16 17 17 18
21 18 15 11 9 5 3 7 21 19 14 12 12 13 14 11 13 13 13 12 9 8 7 7 7 7 7 7 8 9 9 11 12 14 15 15 16 16 16 16 16 16 17 17 17 17 18 18 18
17 15 13 12 10 3 2 12 20 16 10 13 15 13 11 11 11 11 10 9 6 5 6 6 6 6 6 7 8 9 9 10 12 13 14 14 14 14 14 13 13 13 14 15 16 16 17 18 19
12 12 12 12 9 1 5 10 13 14 11 13 15 14 10 10 9 8 7 6 5 5 6 6 7 7 7 8 9 9 10 10 11 11 12 11 11 11 10 10 10 11 12 13 13 14 16 17 18
11 12 16 15 9 3 9 7 8 13 11 10 12 13 10 9 7 6 5 4 3 4 5 6 6 7 8 9 10 10 10 10 10 11 11 11 11 11 11 11 11 12 13 13 14 14 15 16 17
14 17 17 12 5 6 10 11 10 10 8 8 9 13 10 9 7 5 4 3 3 3 4 5 6 7 8 9 9 9 10 11 12 12 13 13 14 14 14 14 15 15 15 16 16 16 17 17 18
16 20 18 9 7 9 10 10 10 10 7 4 7 14 11 10 8 7 5 5 4 4 5 6 7 7 8 9 10 10 11 12 13 14 15 16 16 16 17 17 18 18 18 18 18 18 18 19 19
15 16 18 10 7 10 11 9 10 9 9 7 5 15 13 12 11 10 9 8 6 5 6 7 7 8 8 9 10 11 13 14 15 16 17 17 18 18 18 18 18 19 19 19 19 19 18 19 19
14 14 15 11 4 11 11 10 9 10 10 6 7 15 13 13 14 13 12 11 10 8 7 8 9 9 10 11 12 13 14 15 16 17 18 18 18 17 17 17 17 17 17 17 18 18 17 18 18
13 16 12 7 8 12 10 11 10 10 10 7 9 13 10 12 14 15 14 13 12 11 10 10 10 11 12 13 13 14 15 16 16 17 18 18 17 16 16 16 16 16 15 16 16 16 16 16 17
13 16 14 9 15 16 13 12 14 11 13 14 15 14 12 13 15 17 16 15 14 13 13 12 13 13 13 14 15 16 16 17 16 17 17 17 16 15 15 15 15 14 14 15 15 15 16 17 17
15 18 16 13 17 22 19 13 15 14 14 20 22 18 10 16 16 18 19 18 17 16 15 15 15 16 16 16 17 17 16 16 16 16 16 16 15 15 14 13 14 14 14 15 16 17 17 18 20
17 19 19 17 18 19 20 17 16 16 19 22 23 20 15 17 19 18 20 21 20 19 18 17 17 17 17 17 18 18 17 17 16 16 15 15 15 15 15 15 16 16 16 16 17 18 18 19 21
20 20 22 21 20 19 19 18 18 17 19 23 23 21 18 20 21 21 20 22 21 20 20 20 19 18 18 19 19 20 19 18 18 17 17 17 16 16 16 16 18 18 19 19 20 20 22 23 25
24 24 25 23 21 20 19 20 17 15 19 24 24 20 21 27 25 23 23 24 22 21 21 22 21 20 20 20 21 22 21 21 20 19 19 19 18 18 18 18 19 21 22 23 25 26 28 30 31
28 28 27 23 23 20 21 22 15 15 21 26 26 22 24 29 30 28 28 26 25 23 22 23 23 22 22 22 24 25 25 24 24 23 22 22 21 21 22 22 23 25 26 27 30 31 33 35 37
29 28 26 24 22 20 22 23 16 16 26 31 30 25 26 29 30 32 33 30 27 25 24 24 26 24 26 26 28 29 29 29 28 28 27 27 26 26 26 26 28 30 31 32 34 36 38 40 42
25 24 23 22 18 21 25 27 23 18 26 31 30 28 28 30 32 33 37 38 30 25 24 25 29 27 29 31 33 34 34 35 34 34 33 32 31 31 30 30 32 34 35 37 39 41 43 45 47
23 21 19 20 18 22 30 33 32 25 28 32 33 32 31 31 33 36 40 40 34 28 27 28 31 31 33 35 37 38 39 40 40 41 39 36 36 34 34 33 35 37 40 41 42 45 47 49 51
23 26 26 25 24 26 30 34 34 33 32 31 35 37 36 33 34 38 43 46 43 38 33 32 34 35 37 39 40 42 43 44 44 45 42 40 39 37 36 37 37 39 42 43 45 48 50 53 55
24 26 28 29 29 31 32 34 37 41 38 35 37 41 41 39 38 41 45 48 46 40 37 35 36 38 40 42 43 45 47 47 47 46 44 44 42 39 37 37 39 42 46 47 49 50 52 54 56
24 24 26 28 30 32 32 35 36 36 34 30 31 36 39 40 39 40 45 48 46 43 40 38 38 40 42 43 45 47 48 48 48 47 46 46 43 39 38 39 42 45 48 49 51 52 53 55 56
21 20 21 23 27 31 33 37 36 31 29 30 30 32 36 40 38 38 41 44 44 42 40 39 39 41 43 45 46 47 49 48 48 47 47 47 45 43 43 43 45 47 49 50 51 53 55 55 57
18 19 21 23 24 28 26 29 32 29 28 29 28 28 34 35 35 37 37 37 38 39 39 39 40 42 44 46 46 47 48 48 48 49 49 48 47 45 45 45 47 48 50 51 52 54 56 57 59
19 18 18 18 20 20 17 21 23 20 21 24 26 29 33 35 37 38 38 36 36 37 38 39 41 43 45 46 47 47 48 49 49 49 48 48 48 48 47 48 49 52 52 53 55 57 59 60 61
20 20 19 18 18 18 16 17 16 17 20 23 28 32 36 40 40 40 39 37 35 36 37 39 40 43 45 46 47 48 48 48 48 48 47 47 49 49 49 51 53 54 55 56 58 59 60 60 60
22 22 20 21 22 24 23 23 22 20 22 25 27 29 30 32 31 30 32 33 34 35 37 38 39 40 42 43 44 46 46 46 46 47 47 48 50 51 52 55 57 57 57 58 59 60 60 60 60
23 21 21 24 25 27 25 22 20 22 22 23 26 26 28 29 27 28 29 31 33 35 35 36 36 38 39 40 42 43 44 44 45 45 47 49 51 54 56 58 58 58 58 58 60 60 60 61 63
22 23 23 25 25 25 24 20 21 24 24 24 22 22 29 32 33 34 32 30 32 33 34 35 36 38 40 41 43 44 46 46 47 48 50 52 54 56 58 59 59 59 59 60 61 62 62 63 65
25 25 24 26 27 27 28 26 26 30 29 29 31 36 41 41 37 34 31 30 31 33 34 36 38 40 41 43 44 46 47 48 49 50 53 55 57 57 58 59 59 60 62 62 62 62 63 64 66

GEFSSGP_500_meanwind_030.txt.gz
Wind_Speed
17 15 14 14 14 12 9 8 7 5 8 12 16 20 21 19 15 12 10 9 9 8 8 8 9 9 10 11 12 13 13 14 15 16 16 17 17 18 19 19 19 20 20 20 20 20 21 21 21
20 17 15 15 15 13 11 10 6 6 8 11 15 18 18 16 13 10 9 8 7 6 6 6 6 7 7 8 8 9 9 10 12 13 14 15 16 18 19 20 20 21 22 22 22 22 22 23 23
20 17 16 16 17 14 12 9 5 7 10 11 12 13 12 10 8 7 7 5 4 4 5 6 6 6 7 7 7 7 8 9 9 11 12 13 15 17 18 19 20 21 21 21 21 21 21 21 21
17 16 16 18 18 14 11 9 6 7 11 11 9 8 6 4 5 6 6 5 4 4 5 5 5 6 6 7 7 8 8 9 9 10 11 12 13 14 16 17 17 18 18 18 18 18 18 18 19
15 17 19 20 19 15 11 7 4 6 9 9 8 6 4 7 8 8 8 7 5 4 4 4 5 6 6 6 7 8 8 9 9 10 11 11 12 13 14 15 16 17 17 17 17 18 18 18 19
16 19 22 22 20 15 11 6 2 6 10 10 8 7 6 7 9 9 9 7 6 5 5 5 6 6 6 6 6 7 7 8 8 10 11 12 13 15 16 17 18 18 19 20 20 20 20 20 21
18 21 24 22 18 14 10 4 3 10 12 11 9 7 6 7 9 9 9 8 7 6 6 7 6 6 6 6 6 6 7 8 9 10 11 13 14 15 16 17 19 19 20 21 21 21 22 22 22
20 25 26 23 18 13 8 4 4 11 14 12 9 7 5 7 9 10 10 9 8 8 7 7 6 6 6 6 5 6 7 8 9 10 11 12 13 15 16 17 18 19 20 20 20 21 21 21 22
21 27 26 23 20 15 10 7 6 12 15 13 8 6 6 7 8 9 10 9 8 8 7 7 7 6 6 6 6 7 8 9 10 11 11 12 13 14 15 15 16 16 17 17 18 18 19 20 20
24 28 26 24 23 19 14 9 10 14 16 13 9 7 6 5 7 8 10 10 9 9 8 7 7 7 7 7 8 8 9 10 10 11 12 13 13 13 13 13 14 14 15 15 15 15 16 18 19
26 28 27 26 24 20 15 10 11 15 16 14 12 10 8 7 8 8 9 10 11 11 10 9 9 8 8 8 9 9 9 10 11 12 12 13 13 13 13 13 13 13 13 13 14 14 16 17 18
27 29 28 27 24 21 16 12 14 17 17 16 14 13 11 8 10 12 11 11 11 11 12 11 11 11 10 9 9 9 10 10 11 12 13 14 14 14 14 13 13 13 14 14 13 14 15 17 18
26 29 28 27 24 21 18 17 18 19 20 18 17 15 14 15 16 15 14 14 13 11 13 14 13 14 13 12 11 11 12 12 12 13 14 15 16 16 16 16 16 16 16 17 17 17 18 19 20
25 30 30 29 26 22 21 21 23 24 25 23 21 18 18 19 19 19 18 16 17 15 15 16 15 15 16 14 14 13 13 15 15 15 16 16 17 18 18 20 20 20 20 21 22 22 23 24 25
28 30 29 27 26 24 23 23 23 27 28 27 24 21 21 22 24 23 23 22 22 21 21 20 19 18 18 18 17 16 15 17 18 19 19 19 20 21 22 23 24 25 25 26 27 27 28 29 30
31 31 28 26 25 23 24 21 20 26 29 29 26 24 24 25 27 28 29 29 28 25 25 23 25 24 23 23 21 21 20 20 21 22 23 24 24 25 26 27 28 29 29 30 32 33 33 34 34
32 31 29 27 25 23 24 20 18 24 28 28 26 25 25 27 30 32 33 34 32 29 28 28 30 30 32 31 28 27 26 25 26 27 28 29 29 30 31 32 31 32 32 33 35 37 38 38 38
30 31 30 27 23 24 23 19 17 21 25 27 27 25 26 28 31 34 36 36 35 33 32 33 34 36 36 37 36 34 32 31 30 31 32 33 33 34 35 36 36 35 34 34 35 37 39 40 41
31 33 32 29 27 29 27 23 19 19 23 25 26 27 28 31 34 36 38 38 37 36 36 36 36 38 40 40 40 38 35 35 34 34 35 36 36 36 38 38 39 37 35 35 35 36 38 41 42
32 33 32 29 29 31 30 28 25 24 24 25 27 29 31 34 36 38 39 40 39 39 39 38 39 41 43 44 43 41 38 36 35 35 37 38 39 39 40 40 39 37 36 35 35 36 37 40 42
29 30 29 29 29 32 33 32 27 25 24 26 28 30 33 36 37 38 39 40 40 40 40 40 42 44 46 47 45 41 38 36 36 37 37 38 39 40 41 40 39 39 39 38 38 38 39 41 43
25 24 25 27 30 32 33 35 29 27 27 28 28 30 34 36 37 37 38 38 38 39 41 42 44 47 48 48 45 40 36 34 35 37 37 38 40 41 40 40 41 41 41 42 41 41 42 44 46
22 19 20 23 27 31 33 36 31 29 32 34 34 35 36 37 37 37 37 36 37 39 41 44 46 48 49 48 43 39 36 34 35 37 39 41 41 42 43 43 44 45 45 45 45 45 46 47 50
18 18 22 25 28 28 24 28 25 22 28 35 40 40 40 38 38 36 35 35 36 39 42 45 47 48 48 47 43 42 40 38 39 41 42 44 45 45 45 46 47 47 48 48 48 48 50 51 54
20 22 24 26 26 21 16 19 15 16 23 29 33 34 35 34 33 32 32 34 37 40 43 45 47 47 48 46 44 44 44 43 43 44 44 45 46 46 47 48 49 49 50 50 50 51 53 55 57
22 23 24 23 20 16 17 17 13 17 19 21 23 25 26 28 29 30 32 35 38 41 43 45 45 45 45 45 45 44 44 44 45 46 46 47 47 48 49 50 50 51 52 52 53 54 57 58 61
23 23 22 22 21 20 20 18 17 19 20 21 22 23 25 27 29 32 35 37 41 43 44 43 44 44 43 42 42 42 44 45 47 48 49 50 51 52 52 51 52 52 53 54 56 58 60 62 64
26 23 24 25 25 25 22 20 22 24 26 28 28 28 29 30 32 35 38 41 44 45 46 45 44 41 39 39 40 43 45 47 49 51 52 53 54 54 55 55 56 56 57 58 61 62 63 64 65
27 28 28 27 26 26 25 25 25 26 28 29 31 32 33 34 36 38 41 44 45 45 46 46 43 38 37 39 41 44 47 50 53 54 56 57 58 58 59 59 60 61 62 62 63 63 63 63 64
27 31 33 32 29 26 25 28 31 31 31 31 32 34 35 37 38 40 42 43 45 46 47 46 42 37 37 40 43 47 51 54 56 57 59 60 61 62 63 63 64 64 64 64 63 62 62 63 63

GEFSSGP_500_meanwind_036.txt.gz
Wind_Speed
18 17 17 17 16 14 12 9 6 5 5 6 8 9 10 10 9 8 5 4 4 4 4 6 7 6 6 6 6 6 6 6 6 6 7 7 8 9 10 11 12 13 14 15 16 16 17 17 18
19 18 18 18 17 16 14 11 8 6 5 6 8 9 10 11 9 7 5 4 3 3 3 5 5 5 5 5 5 4 4 4 4 5 5 6 7 7 9 10 12 13 14 15 16 17 17 17 17
19 19 19 19 18 17 16 12 9 6 4 5 7 9 11 10 9 7 5 3 2 2 3 4 4 4 4 4 4 4 4 4 4 4 5 5 6 7 8 9 11 12 13 14 15 15 15 15 15
21 20 20 20 18 18 16 14 10 6 3 3 6 9 10 10 7 6 6 6 5 4 4 4 5 5 5 5 5 5 5 4 4 5 5 5 6 7 8 9 10 11 12 13 14 15 15 14 14
21 21 20 20 19 18 17 15 11 6 2 1 5 8 10 8 7 7 7 7 6 6 6 6 7 7 7 7 7 6 6 5 5 5 5 6 7 8 9 10 11 12 14 15 16 16 16 16 16
20 20 20 21 21 19 18 15 11 6 3 2 4 7 9 9 8 8 8 8 7 7 8 8 9 9 9 9 8 7 7 6 6 6 6 7 8 9 10 12 13 14 15 16 17 18 18 18 17
18 20 21 24 24 22 21 16 12 8 5 4 5 8 9 9 9 9 10 10 10 10 10 10 10 10 11 10 9 8 7 7 7 6 7 7 8 10 11 12 13 14 16 17 18 19 19 19 18
17 21 24 27 27 25 23 18 14 10 7 4 5 7 8 7 8 10 10 12 12 12 12 12 12 12 12 12 11 10 9 9 9 8 8 8 8 9 10 11 12 13 14 16 17 17 17 17 17
17 21 26 28 29 28 25 20 16 12 8 6 5 5 5 5 6 8 10 11 12 13 13 14 14 14 14 13 12 12 11 11 10 9 9 8 8 8 9 10 10 11 12 13 14 14 15 15 15
17 22 28 30 31 30 26 22 17 13 9 7 5 3 2 2 4 6 8 9 11 12 13 15 16 16 16 15 14 13 12 12 11 11 10 9 9 9 9 9 9 10 11 12 12 13 13 13 14
17 25 31 33 31 29 26 23 19 15 11 8 6 4 1 2 3 4 7 8 10 11 12 14 15 17 17 16 15 14 13 12 12 12 12 11 10 9 9 9 9 10 10 11 12 13 14 14 15
20 29 32 33 30 28 26 23 20 17 14 11 9 7 5 3 4 5 7 9 10 11 12 14 15 16 16 16 16 15 14 14 13 13 12 12 11 11 10 9 10 10 11 13 14 15 17 17 18
23 32 33 33 30 28 26 24 20 17 16 14 13 10 8 7 7 8 9 10 11 12 13 15 16 16 16 17 16 16 16 16 16 15 15 14 14 14 13 12 13 13 14 15 16 18 20 21 22
28 34 34 32 30 29 28 25 22 19 18 17 16 14 11 11 11 11 11 12 13 13 15 17 17 17 18 18 18 18 18 18 18 19 19 18 18 18 18 17 16 17 17 18 19 20 22 24 25
29 32 32 32 31 31 29 27 25 22 21 19 18 17 15 15 15 14 14 14 14 15 17 18 18 19 21 22 21 20 20 21 21 23 23 23 24 23 22 22 21 21 22 22 22 22 24 26 27
29 31 32 33 34 33 30 28 27 25 24 22 21 21 20 19 19 18 16 15 15 16 18 19 20 21 24 25 24 24 24 24 25 26 28 29 29 29 27 27 26 25 25 25 25 25 26 27 29
31 31 33 35 34 35 33 30 29 29 28 27 26 25 24 24 22 20 18 16 16 17 19 19 21 24 26 27 28 29 30 29 29 30 31 33 34 34 32 31 30 29 29 28 28 28 28 29 31
32 33 33 36 37 37 36 32 30 32 31 31 30 29 28 27 24 21 20 18 17 18 19 21 23 26 28 30 32 33 34 34 35 36 36 36 36 35 34 33 32 30 30 30 29 29 29 31 33
34 34 35 36 39 40 40 36 33 34 35 35 34 33 32 29 26 25 23 20 19 19 20 22 25 28 31 33 34 36 39 38 38 38 37 36 34 32 32 32 31 29 28 28 28 28 30 32 34
36 36 35 35 39 42 43 41 37 37 37 37 36 35 33 30 28 27 25 23 21 21 22 24 27 29 32 35 37 40 41 40 39 38 34 32 30 29 29 30 30 28 28 29 30 31 32 34 35
35 35 34 34 38 41 43 43 40 38 38 38 37 36 34 32 30 29 28 26 25 25 26 27 29 32 35 38 39 41 43 42 40 36 32 29 28 27 28 28 30 30 30 31 32 34 36 37 38
33 31 32 33 36 39 41 41 39 39 38 38 38 38 36 34 33 32 31 31 30 30 30 32 34 36 39 41 42 43 43 43 40 37 32 30 27 26 26 28 29 31 32 34 36 38 39 41 42
29 30 32 34 36 38 39 40 37 37 38 37 38 39 38 37 35 34 33 34 34 34 35 37 38 41 42 44 45 46 45 45 41 38 34 31 27 27 28 29 32 34 37 39 41 42 44 46 47
31 33 34 35 35 36 35 37 37 37 36 37 38 39 39 38 37 36 36 36 37 38 39 41 43 43 44 45 46 47 45 42 39 37 35 32 30 29 31 33 35 38 41 43 45 47 49 50 52
33 34 34 34 35 34 31 34 36 36 36 37 38 38 39 38 38 37 38 38 40 41 42 43 43 43 43 44 44 45 45 43 40 39 37 35 33 33 35 37 40 43 45 47 50 52 53 54 56
31 33 34 34 33 30 29 31 33 33 33 34 35 35 35 35 36 36 36 37 38 38 39 39 40 41 41 42 44 46 45 45 44 42 40 39 38 39 40 43 45 48 50 52 54 56 57 59 60
32 33 32 32 31 30 30 31 31 31 30 31 32 32 32 32 32 32 31 31 32 33 34 35 37 39 41 43 45 46 46 46 45 44 42 42 42 44 46 48 51 53 55 57 58 60 61 63 64
34 34 32 32 30 29 30 29 28 28 28 29 31 31 31 32 32 32 32 32 33 34 35 36 38 41 43 45 47 48 48 47 46 46 46 46 47 48 50 52 55 56 58 59 61 63 64 66 66
35 35 34 33 31 29 28 28 29 29 29 30 31 32 31 32 32 33 33 34 35 36 38 39 41 43 45 47 49 50 50 50 49 49 49 49 51 53 54 56 58 59 60 61 63 64 65 65 65
35 35 33 32 31 31 30 31 30 30 30 31 32 33 33 33 33 34 34 36 37 39 41 43 45 47 49 50 50 51 52 52 52 52 53 54 55 56 57 58 59 60 61 62 63 64 64 63 62